Date String (YYYY-MM-DD hh:mm:ss) UTC,Instrument flags,absolute air pressure of the measurement (hPa),sample flow rate (lpm),inlet stack bypass flow (lpm),air temperature of the measurement (°C),ambient temperature measured by the external sensor (°C),aerosol sample conditioner tube jacket temperature (°C),OPC LED temperature (°C),internal box temperature (°C),relative humidity of the measurement (%),span deviation,mass concentration of particles derived from Lorenz-Mie calculation of OPC scattering (μg/m³),mass concentration of particles derived from Lorenz-Mie calculation of OPC scattering (μg/m³),mass concentration of particles derived from Lorenz-Mie calculation of OPC scattering (μg/m³)
DateTimeUTC,F1_M11,P_M11,Q1_M11,Q2_M11,T1_M11,T2_M11,T3_M11,T4_M11,T5_M11,U1_M11,ZSPAN_M11,X0_M11,X2_M11,X1_M11
2023-11-06 20:00:00,SystemResetWarning,0823.9,5.00,000.00,027.6,026.4,000.0,035.8,029.2,13.0,0000.0,0010.36,0004.29,0003.60
2023-11-06 20:01:00,SystemResetWarning,0823.9,5.00,000.00,027.6,026.5,000.0,035.8,029.3,12.9,0000.0,0010.68,0004.31,0003.61
2023-11-06 20:02:00,SystemResetWarning,0823.8,5.00,000.00,027.7,026.7,000.0,035.8,029.4,12.9,0000.0,0011.21,0004.34,0003.60
2023-11-06 20:03:00,SystemResetWarning,0823.8,5.00,000.00,027.7,026.9,000.0,035.8,029.4,12.9,0000.0,0010.48,0004.40,0003.61
2023-11-06 20:04:00,SystemResetWarning,0823.8,5.00,000.00,027.8,027.0,000.0,035.9,029.5,12.9,0000.0,0010.25,0004.41,0003.62
2023-11-06 20:05:00,SystemResetWarning,0823.8,4.99,000.00,027.8,027.1,000.0,035.9,029.5,12.8,0000.0,0010.31,0004.45,0003.63
2023-11-06 20:06:00,SystemResetWarning,0823.8,4.99,000.00,027.9,027.2,000.0,035.9,029.6,12.6,0000.0,0010.67,0004.47,0003.64
2023-11-06 20:07:00,SystemResetWarning,0823.8,5.00,000.00,028.0,027.1,000.0,036.0,029.7,12.5,0000.0,0011.37,0004.46,0003.63
2023-11-06 20:08:00,SystemResetWarning,0823.8,4.99,000.00,028.0,025.5,000.0,036.0,029.5,12.5,0000.0,0011.85,0004.45,0003.63
2023-11-06 20:09:00,SystemResetWarning,0823.8,5.00,000.00,027.8,023.7,000.0,035.9,029.1,12.6,0000.0,0012.24,0004.45,0003.62
2023-11-06 20:10:00,SystemResetWarning,0823.8,5.02,000.00,027.7,023.7,000.0,035.9,028.9,12.7,0000.0,0014.00,0004.48,0003.63
2023-11-06 20:11:00,SystemResetWarning,0823.8,4.99,000.00,027.6,024.1,000.0,035.8,028.6,12.9,0000.0,0014.72,0004.47,0003.63
2023-11-06 20:12:00,SystemResetWarning,0823.8,5.00,000.00,027.5,024.5,000.0,035.8,028.6,12.9,0000.0,0016.04,0004.45,0003.62
2023-11-06 20:13:00,SystemResetWarning,0823.8,5.00,000.00,027.5,025.0,000.0,035.8,028.7,12.8,0000.0,0015.65,0004.45,0003.63
2023-11-06 20:14:00,SystemResetWarning,0823.8,5.00,000.00,027.5,025.4,000.0,035.8,028.9,12.8,0000.0,0015.58,0004.43,0003.62
2023-11-06 20:15:00,SystemResetWarning,0823.7,5.00,000.00,027.5,025.7,000.0,035.8,029.0,12.9,0000.0,0015.29,0004.39,0003.61
2023-11-06 20:16:00,SystemResetWarning,0823.7,5.00,000.00,027.5,026.0,000.0,035.8,029.1,12.7,0000.0,0015.23,0004.35,0003.60
2023-11-06 20:17:00,SystemResetWarning,0823.7,4.99,000.00,027.6,026.3,000.0,035.8,029.2,12.6,0000.0,0015.69,0004.30,0003.60
2023-11-06 20:18:00,SystemResetWarning,0823.6,5.00,000.00,027.6,026.5,000.0,035.8,029.2,12.6,0000.0,0016.00,0004.28,0003.60
2023-11-06 20:19:00,SystemResetWarning,0823.6,5.00,000.00,027.7,026.7,000.0,035.8,029.3,12.7,0000.0,0015.87,0004.28,0003.61
2023-11-06 20:20:00,SystemResetWarning,0823.6,5.00,000.00,027.7,026.8,000.0,035.8,029.4,12.6,0000.0,0016.23,0004.29,0003.62
2023-11-06 20:21:00,SystemResetWarning,0823.7,5.00,000.00,027.8,026.9,000.0,035.9,029.5,12.5,0000.0,0014.88,0004.26,0003.62
2023-11-06 20:22:00,SystemResetWarning,0823.7,5.00,000.00,027.8,027.1,000.0,035.9,029.5,12.3,0000.0,0014.17,0004.26,0003.62
2023-11-06 20:23:00,SystemResetWarning,0823.7,5.00,000.00,027.9,027.2,000.0,035.9,029.6,12.4,0000.0,0013.01,0004.23,0003.63
2023-11-06 20:24:00,SystemResetWarning,0823.6,5.00,000.00,028.0,027.3,000.0,036.0,029.7,12.3,0000.0,0013.28,0004.25,0003.64
2023-11-06 20:25:00,SystemResetWarning,0823.6,4.98,000.00,028.0,026.8,000.0,036.0,029.7,12.2,0000.0,0013.32,0004.25,0003.65
2023-11-06 20:26:00,SystemResetWarning,0823.6,4.99,000.00,028.0,024.8,000.0,036.0,029.4,12.4,0000.0,0012.85,0004.25,0003.65
2023-11-06 20:27:00,SystemResetWarning,0823.5,5.01,000.00,027.8,023.7,000.0,035.9,029.1,12.4,0000.0,0012.55,0004.23,0003.65
2023-11-06 20:28:00,SystemResetWarning,0823.5,5.02,000.00,027.7,024.0,000.0,035.9,028.8,12.5,0000.0,0011.71,0004.25,0003.66
2023-11-06 20:29:00,SystemResetWarning,0823.4,4.99,000.00,027.6,024.4,000.0,035.9,028.6,12.7,0000.0,0010.88,0004.28,0003.67
2023-11-06 20:30:00,SystemResetWarning,0823.4,5.00,000.00,027.5,024.9,000.0,035.8,028.7,12.7,0000.0,0010.54,0004.30,0003.67
2023-11-06 20:31:00,SystemResetWarning,0823.4,5.01,000.00,027.5,025.3,000.0,035.8,028.8,12.7,0000.0,0010.41,0004.31,0003.67
2023-11-06 20:32:00,SystemResetWarning,0823.4,5.00,000.00,027.6,025.7,000.0,035.8,029.0,12.7,0000.0,0010.38,0004.35,0003.66
2023-11-06 20:33:00,SystemResetWarning,0823.4,4.99,000.00,027.6,026.0,000.0,035.8,029.1,12.6,0000.0,0010.61,0004.36,0003.66
2023-11-06 20:34:00,SystemResetWarning,0823.4,5.00,000.00,027.6,026.2,000.0,035.8,029.2,12.6,0000.0,0010.45,0004.37,0003.66
2023-11-06 20:35:00,SystemResetWarning,0823.5,5.00,000.00,027.7,026.5,000.0,035.8,029.3,12.5,0000.0,0009.84,0004.34,0003.66
2023-11-06 20:36:00,SystemResetWarning,0823.5,5.00,000.00,027.7,026.7,000.0,035.8,029.4,12.7,0000.0,0009.94,0004.34,0003.67
2023-11-06 20:37:00,SystemResetWarning,0823.5,5.00,000.00,027.8,026.9,000.0,035.9,029.5,12.5,0000.0,0010.64,0004.33,0003.68
2023-11-06 20:38:00,SystemResetWarning,0823.4,5.01,000.00,027.9,027.0,000.0,035.9,029.5,12.4,0000.0,0011.04,0004.36,0003.69
2023-11-06 20:39:00,SystemResetWarning,0823.4,4.99,000.00,027.9,027.0,000.0,035.9,029.6,12.7,0000.0,0012.05,0004.41,0003.69
2023-11-06 20:40:00,SystemResetWarning,0823.4,4.99,000.00,027.9,025.4,000.0,035.9,029.4,12.5,0000.0,0012.13,0004.41,0003.68
2023-11-06 20:41:00,SystemResetWarning,0823.3,5.00,000.00,027.8,023.7,000.0,035.9,029.1,12.4,0000.0,0011.83,0004.39,0003.67
2023-11-06 20:42:00,SystemResetWarning,0823.1,5.01,000.00,027.7,023.7,000.0,035.8,028.8,12.6,0000.0,0011.84,0004.39,0003.67
2023-11-06 20:43:00,SystemResetWarning,0823.2,5.01,000.00,027.5,024.1,000.0,035.8,028.5,12.8,0000.0,0012.84,0004.42,0003.68
2023-11-06 20:44:00,SystemResetWarning,0823.3,4.99,000.00,027.5,024.5,000.0,035.8,028.6,12.7,0000.0,0013.24,0004.43,0003.69
2023-11-06 20:45:00,SystemResetWarning,0823.3,4.99,000.00,027.5,025.0,000.0,035.7,028.7,12.6,0000.0,0013.42,0004.41,0003.70
2023-11-06 20:46:00,SystemResetWarning,0823.3,5.00,000.00,027.5,025.4,000.0,035.7,028.9,12.6,0000.0,0014.87,0004.43,0003.70
2023-11-06 20:47:00,SystemResetWarning,0823.4,5.00,000.00,027.5,025.7,000.0,035.7,029.0,12.6,0000.0,0016.67,0004.48,0003.71
2023-11-06 20:48:00,SystemResetWarning,0823.4,5.00,000.00,027.5,026.1,000.0,035.7,029.1,12.5,0000.0,0016.15,0004.50,0003.70
2023-11-06 20:49:00,SystemResetWarning,0823.4,5.00,000.00,027.6,026.3,000.0,035.8,029.2,12.3,0000.0,0015.78,0004.49,0003.70
2023-11-06 20:50:00,SystemResetWarning,0823.3,5.00,000.00,027.7,026.5,000.0,035.8,029.3,12.2,0000.0,0014.99,0004.46,0003.70
2023-11-06 20:51:00,SystemResetWarning,0823.3,5.00,000.00,027.7,026.7,000.0,035.8,029.4,12.2,0000.0,0015.63,0004.43,0003.70
2023-11-06 20:52:00,SystemResetWarning,0823.3,5.00,000.00,027.8,026.9,000.0,035.8,029.5,12.3,0000.0,0016.09,0004.45,0003.72
2023-11-06 20:53:00,SystemResetWarning,0823.4,5.00,000.00,027.8,027.1,000.0,035.9,029.5,12.4,0000.0,0015.90,0004.41,0003.74
2023-11-06 20:54:00,SystemResetWarning,0823.4,5.00,000.00,027.9,027.0,000.0,035.9,029.6,12.3,0000.0,0014.83,0004.37,0003.72
2023-11-06 20:55:00,SystemResetWarning,0823.4,4.98,000.00,027.9,025.5,000.0,035.9,029.4,11.9,0000.0,0013.91,0004.34,0003.72
2023-11-06 20:56:00,SystemResetWarning,0823.4,5.01,000.00,027.8,023.8,000.0,035.8,029.0,12.1,0000.0,0013.88,0004.33,0003.70
2023-11-06 20:57:00,SystemResetWarning,0823.2,5.01,000.00,027.7,023.9,000.0,035.8,028.8,12.3,0000.0,0013.51,0004.33,0003.69
2023-11-06 20:58:00,SystemResetWarning,0823.2,5.00,000.00,027.5,024.3,000.0,035.8,028.6,12.3,0000.0,0012.21,0004.34,0003.68
2023-11-06 20:59:00,SystemResetWarning,0823.0,5.00,000.00,027.5,024.7,000.0,035.7,028.6,12.3,0003.6,0012.79,0004.32,0003.68
